| time (UTC) | temp F | wind direction | speed knots | gust knots | rain 1hr in | rain 24hr in | rain mn in | humidity % | barometer mb |
| 20260505064059 | 46 | 0 | 0.0 | 0.0 | 0.00 | 0.14 | 0.00 | 94 | 1012.0 |
| 20260505063559 | 46 | 0 | 0.0 | 0.0 | 0.00 | 0.14 | 0.00 | 93 | 1011.9 |
| 20260505063059 | 46 | 0 | 0.0 | 0.0 | 0.00 | 0.14 | 0.00 | 93 | 1011.9 |
| 20260505062602 | 46 | 0 | 0.0 | 0.0 | 0.00 | 0.14 | 0.00 | 93 | 1011.8 |
| 20260505062100 | 46 | 0 | 0.0 | 0.9 | 0.00 | 0.14 | 0.00 | 94 | 1011.8 |
| 20260505061558 | 46 | 0 | 0.0 | 0.9 | 0.00 | 0.14 | 0.00 | 93 | 1011.9 |
| 20260505061059 | 46 | 0 | 0.0 | 0.9 | 0.00 | 0.14 | 0.00 | 93 | 1012.0 |
| 20260505060602 | 46 | 0 | 0.0 | 0.9 | 0.00 | 0.14 | 0.00 | 93 | 1011.8 |
| 20260505060059 | 46 | 0 | 0.0 | 0.9 | 0.00 | 0.14 | 0.00 | 93 | 1012.0 |
| 20260505055603 | 46 | 0 | 0.0 | 0.0 | 0.00 | 0.14 | 0.14 | 93 | 1011.8 |
| 20260505055059 | 46 | 0 | 0.0 | 0.0 | 0.00 | 0.14 | 0.14 | 92 | 1011.9 |
| 20260505054602 | 45 | 0 | 0.0 | 0.9 | 0.00 | 0.14 | 0.14 | 92 | 1012.1 |
| 20260505054102 | 45 | 0 | 0.0 | 0.9 | 0.00 | 0.14 | 0.14 | 93 | 1012.0 |
| 20260505053559 | 45 | 0 | 0.0 | 0.9 | 0.00 | 0.14 | 0.14 | 93 | 1012.0 |
| 20260505053100 | 45 | 0 | 0.0 | 1.7 | 0.00 | 0.14 | 0.14 | 92 | 1011.9 |
| 20260505052558 | 45 | 0 | 0.0 | 1.7 | 0.00 | 0.14 | 0.14 | 92 | 1011.7 |
| 20260505052059 | 45 | 0 | 0.9 | 1.7 | 0.00 | 0.14 | 0.14 | 92 | 1011.8 |
| 20260505051608 | 45 | 160 | 0.0 | 1.7 | 0.00 | 0.14 | 0.14 | 92 | 1011.7 |
| 20260505051100 | 45 | 0 | 0.0 | 1.7 | 0.00 | 0.14 | 0.14 | 92 | 1011.6 |
| 20260505050604 | 45 | 0 | 0.0 | 1.7 | 0.00 | 0.14 | 0.14 | 91 | 1011.6 |
| 20260505050107 | 45 | 0 | 0.0 | 1.7 | 0.00 | 0.14 | 0.14 | 91 | 1011.4 |
| 20260505041604 | 47 | 194 | 0.9 | 5.2 | 0.02 | 0.13 | 0.13 | 88 | 1011.8 |
| 20260505041058 | 47 | 0 | 1.7 | 5.2 | 0.02 | 0.13 | 0.13 | 88 | 1011.9 |
| 20260505040558 | 47 | 198 | 0.9 | 3.5 | 0.03 | 0.13 | 0.13 | 88 | 1011.9 |
| 20260505035601 | 47 | 254 | 0.9 | 6.1 | 0.06 | 0.13 | 0.13 | 87 | 1011.9 |
| 20260505035106 | 47 | 264 | 1.7 | 7.0 | 0.07 | 0.13 | 0.13 | 88 | 1011.8 |
| 20260505034602 | 47 | 220 | 2.6 | 7.0 | 0.08 | 0.13 | 0.13 | 88 | 1011.8 |
| 20260505034102 | 47 | 0 | 0.9 | 7.0 | 0.10 | 0.13 | 0.13 | 87 | 1011.7 |
| 20260505033602 | 47 | 235 | 2.6 | 7.0 | 0.12 | 0.13 | 0.13 | 87 | 1011.9 |
| 20260505033100 | 47 | 232 | 2.6 | 7.0 | 0.12 | 0.12 | 0.12 | 88 | 1012.0 |
| 20260505032559 | 47 | 254 | 2.6 | 7.0 | 0.11 | 0.11 | 0.11 | 88 | 1012.0 |
| 20260505032058 | 47 | 225 | 2.6 | 7.0 | 0.11 | 0.11 | 0.11 | 88 | 1012.0 |
| 20260505031601 | 48 | 220 | 2.6 | 6.1 | 0.11 | 0.11 | 0.11 | 87 | 1011.9 |
| 20260505031058 | 48 | 264 | 1.7 | 7.8 | 0.10 | 0.10 | 0.10 | 87 | 1011.9 |
| 20260505030558 | 48 | 263 | 4.3 | 7.8 | 0.10 | 0.10 | 0.10 | 86 | 1011.8 |
| 20260505030058 | 48 | 272 | 2.6 | 6.1 | 0.07 | 0.07 | 0.07 | 86 | 1011.5 |
| 20260505025559 | 49 | 259 | 1.7 | 6.1 | 0.07 | 0.07 | 0.07 | 85 | 1011.8 |
| 20260505025059 | 49 | 262 | 0.9 | 7.8 | 0.05 | 0.05 | 0.05 | 84 | 1011.7 |
| 20260505024608 | 49 | 256 | 2.6 | 9.6 | 0.04 | 0.04 | 0.04 | 82 | 1011.6 |
| 20260505024058 | 49 | 244 | 3.5 | 9.6 | 0.03 | 0.03 | 0.03 | 80 | 1011.5 |
| 20260505023558 | 50 | 261 | 5.2 | 8.7 | 0.00 | 0.00 | 0.00 | 79 | 1011.5 |
| 20260505023105 | 50 | 262 | 3.5 | 6.1 | 0.00 | 0.00 | 0.00 | 77 | 1011.4 |
| 20260505022559 | 50 | 296 | 1.7 | 3.5 | 0.00 | 0.00 | 0.00 | 77 | 1011.1 |
| 20260505022059 | 50 | 336 | 0.9 | 2.6 | 0.00 | 0.00 | 0.00 | 74 | 1011.0 |
| 20260505021602 | 50 | 336 | 0.9 | 3.5 | 0.00 | 0.00 | 0.00 | 73 | 1010.9 |
| 20260505021058 | 50 | 336 | 0.9 | 4.3 | 0.00 | 0.00 | 0.00 | 72 | 1010.9 |
| 20260505020558 | 50 | 350 | 0.9 | 5.2 | 0.00 | 0.00 | 0.00 | 71 | 1010.8 |
| 20260505020059 | 51 | 352 | 0.9 | 6.1 | 0.00 | 0.00 | 0.00 | 71 | 1011.0 |
| 20260505015559 | 51 | 360 | 1.7 | 8.7 | 0.00 | 0.00 | 0.00 | 71 | 1011.1 |
| 20260505015101 | 51 | 14 | 1.7 | 10.4 | 0.00 | 0.00 | 0.00 | 70 | 1010.9 |
| 20260505014600 | 51 | 309 | 2.6 | 10.4 | 0.00 | 0.00 | 0.00 | 69 | 1010.9 |
| 20260505014102 | 51 | 328 | 4.3 | 9.6 | 0.00 | 0.00 | 0.00 | 69 | 1010.8 |
| 20260505013558 | 51 | 319 | 4.3 | 9.6 | 0.00 | 0.00 | 0.00 | 68 | 1010.8 |
| 20260505013127 | 52 | 298 | 3.5 | 9.6 | 0.00 | 0.00 | 0.00 | 67 | 1010.6 |
| 20260505012558 | 52 | 339 | 4.3 | 11.3 | 0.00 | 0.00 | 0.00 | 67 | 1010.7 |
| 20260505012100 | 52 | 302 | 4.3 | 13.0 | 0.00 | 0.00 | 0.00 | 65 | 1010.8 |
| 20260505011615 | 52 | 309 | 7.0 | 13.0 | 0.00 | 0.00 | 0.00 | 64 | 1010.7 |
| 20260505011058 | 53 | 319 | 4.3 | 12.2 | 0.00 | 0.00 | 0.00 | 63 | 1010.6 |
| 20260505010601 | 54 | 344 | 5.2 | 13.0 | 0.00 | 0.00 | 0.00 | 61 | 1010.7 |
| 20260505010115 | 55 | 306 | 6.1 | 13.0 | 0.00 | 0.00 | 0.00 | 58 | 1010.6 |
| 20260505005559 | 57 | 316 | 3.5 | 9.6 | 0.00 | 0.00 | 0.00 | 56 | 1010.5 |
| 20260505005059 | 57 | 346 | 0.9 | 6.1 | 0.00 | 0.00 | 0.00 | 55 | 1010.2 |
| 20260505004603 | 57 | 331 | 1.7 | 6.1 | 0.00 | 0.00 | 0.00 | 54 | 1010.3 |
| 20260505004058 | 58 | 5 | 0.9 | 5.2 | 0.00 | 0.00 | 0.00 | 53 | 1010.2 |
| 20260505003601 | 58 | 344 | 0.9 | 4.3 | 0.00 | 0.00 | 0.00 | 52 | 1010.2 |
| 20260505003104 | 58 | 355 | 0.0 | 5.2 | 0.00 | 0.00 | 0.00 | 52 | 1010.1 |
| 20260505002558 | 58 | 324 | 2.6 | 7.0 | 0.00 | 0.00 | 0.00 | 52 | 1010.1 |
| 20260505002058 | 58 | 277 | 3.5 | 7.0 | 0.00 | 0.00 | 0.00 | 51 | 1010.1 |
| 20260505001559 | 59 | 293 | 1.7 | 3.5 | 0.00 | 0.00 | 0.00 | 50 | 1010.1 |
| 20260505001058 | 59 | 314 | 1.7 | 7.8 | 0.00 | 0.00 | 0.00 | 51 | 1010.0 |
| 20260505000559 | 59 | 5 | 2.6 | 7.8 | 0.00 | 0.00 | 0.00 | 52 | 1009.8 |
| 20260505000109 | 58 | 19 | 1.7 | 5.2 | 0.00 | 0.00 | 0.00 | 54 | 1009.8 |
| 20260504235559 | 57 | 15 | 1.7 | 4.3 | 0.00 | 0.00 | 0.00 | 57 | 1009.9 |
| 20260504235102 | 57 | 336 | 1.7 | 4.3 | 0.00 | 0.00 | 0.00 | 58 | 1010.0 |
| 20260504234604 | 57 | 327 | 1.7 | 4.3 | 0.00 | 0.00 | 0.00 | 58 | 1010.1 |
| 20260504234102 | 57 | 347 | 1.7 | 4.3 | 0.00 | 0.00 | 0.00 | 58 | 1010.0 |
| 20260504233558 | 57 | 320 | 1.7 | 4.3 | 0.00 | 0.00 | 0.00 | 55 | 1009.9 |
| 20260504233108 | 58 | 341 | 1.7 | 4.3 | 0.00 | 0.00 | 0.00 | 56 | 1009.8 |
| 20260504232559 | 58 | 325 | 1.7 | 2.6 | 0.00 | 0.00 | 0.00 | 54 | 1009.9 |
| 20260504232059 | 58 | 335 | 0.0 | 2.6 | 0.00 | 0.00 | 0.00 | 54 | 1009.9 |
| 20260504231601 | 58 | 0 | 0.0 | 3.5 | 0.00 | 0.00 | 0.00 | 54 | 1009.7 |
| 20260504231058 | 58 | 0 | 0.9 | 3.5 | 0.00 | 0.00 | 0.00 | 57 | 1009.9 |
| 20260504230601 | 58 | 325 | 0.9 | 10.4 | 0.00 | 0.00 | 0.00 | 55 | 1009.9 |
| 20260504230107 | 59 | 351 | 0.0 | 10.4 | 0.00 | 0.00 | 0.00 | 62 | 1009.8 |
| 20260504225559 | 60 | 235 | 3.5 | 10.4 | 0.00 | 0.00 | 0.00 | 50 | 1010.0 |
| 20260504225058 | 60 | 261 | 1.7 | 7.0 | 0.00 | 0.00 | 0.00 | 44 | 1009.8 |
| 20260504224559 | 60 | 266 | 3.5 | 10.4 | 0.00 | 0.00 | 0.00 | 45 | 1009.9 |
| 20260504224059 | 60 | 271 | 4.3 | 10.4 | 0.00 | 0.00 | 0.00 | 46 | 1010.0 |
| 20260504223559 | 60 | 268 | 6.1 | 12.2 | 0.00 | 0.00 | 0.00 | 45 | 1009.9 |
| 20260504223104 | 60 | 262 | 7.8 | 12.2 | 0.00 | 0.00 | 0.00 | 45 | 1010.1 |
| 20260504222601 | 61 | 263 | 4.3 | 7.8 | 0.00 | 0.00 | 0.00 | 43 | 1010.0 |
| 20260504222058 | 61 | 277 | 2.6 | 5.2 | 0.00 | 0.00 | 0.00 | 42 | 1009.7 |
| 20260504221603 | 62 | 331 | 1.7 | 7.0 | 0.00 | 0.00 | 0.00 | 41 | 1009.4 |
| 20260504221058 | 63 | 20 | 1.7 | 7.0 | 0.00 | 0.00 | 0.00 | 40 | 1009.1 |
| 20260504220558 | 63 | 360 | 1.7 | 7.8 | 0.00 | 0.00 | 0.00 | 40 | 1008.7 |
| 20260504220100 | 64 | 337 | 2.6 | 9.6 | 0.00 | 0.00 | 0.00 | 41 | 1008.5 |
| 20260504215559 | 64 | 71 | 2.6 | 9.6 | 0.00 | 0.00 | 0.00 | 42 | 1008.3 |
| 20260504215058 | 64 | 355 | 2.6 | 14.8 | 0.00 | 0.00 | 0.00 | 39 | 1008.2 |
| 20260504214614 | 64 | 49 | 6.1 | 14.8 | 0.00 | 0.00 | 0.00 | 39 | 1008.3 |
| 20260504214058 | 64 | 34 | 6.1 | 13.9 | 0.00 | 0.00 | 0.00 | 40 | 1008.6 |
| 20260504213558 | 64 | 49 | 8.7 | 17.4 | 0.00 | 0.00 | 0.00 | 41 | 1008.7 |
| 20260504213116 | 65 | 5 | 8.7 | 20.0 | 0.00 | 0.00 | 0.00 | 38 | 1008.6 |
| 20260504212559 | 66 | 352 | 8.7 | 20.0 | 0.00 | 0.00 | 0.00 | 36 | 1008.9 |
| 20260504212100 | 69 | 36 | 7.8 | 20.0 | 0.00 | 0.00 | 0.00 | 34 | 1008.8 |
| 20260504211559 | 69 | 346 | 10.4 | 19.1 | 0.00 | 0.00 | 0.00 | 33 | 1008.9 |
| 20260504211059 | 70 | 349 | 7.8 | 19.1 | 0.00 | 0.00 | 0.00 | 36 | 1008.9 |
| 20260504210559 | 65 | 12 | 8.7 | 17.4 | 0.00 | 0.00 | 0.00 | 39 | 1008.8 |
| 20260504205559 | 61 | 26 | 7.8 | 17.4 | 0.00 | 0.00 | 0.00 | 45 | 1009.0 |
| 20260504205101 | 62 | 343 | 5.2 | 16.5 | 0.00 | 0.00 | 0.00 | 42 | 1009.2 |
| 20260504204606 | 64 | 5 | 7.8 | 16.5 | 0.00 | 0.00 | 0.00 | 35 | 1009.4 |
| 20260504204058 | 67 | 48 | 6.1 | 16.5 | 0.00 | 0.00 | 0.00 | 30 | 1009.4 |
| 20260504203601 | 69 | 319 | 2.6 | 13.0 | 0.00 | 0.00 | 0.00 | 27 | 1009.2 |
| 20260504203107 | 72 | 105 | 5.2 | 13.0 | 0.00 | 0.00 | 0.00 | 26 | 1008.7 |
| 20260504202558 | 70 | 175 | 4.3 | 12.2 | 0.00 | 0.00 | 0.00 | 29 | 1008.5 |
| 20260504202059 | 69 | 134 | 4.3 | 14.8 | 0.00 | 0.00 | 0.00 | 30 | 1008.4 |
| 20260504201621 | 68 | 217 | 6.1 | 14.8 | 0.00 | 0.00 | 0.00 | 28 | 1008.3 |
| 20260504201058 | 68 | 178 | 5.2 | 11.3 | 0.00 | 0.00 | 0.00 | 29 | 1008.3 |
| 20260504200559 | 68 | 159 | 3.5 | 13.0 | 0.00 | 0.00 | 0.00 | 29 | 1008.5 |
| 20260504200111 | 69 | 188 | 7.0 | 22.6 | 0.00 | 0.00 | 0.00 | 27 | 1008.5 |
| 20260504195603 | 70 | 214 | 7.0 | 22.6 | 0.00 | 0.00 | 0.00 | 23 | 1008.3 |
| 20260504195059 | 71 | 286 | 4.3 | 9.6 | 0.00 | 0.00 | 0.00 | 25 | 1008.3 |
| 20260504194612 | 72 | 317 | 4.3 | 9.6 | 0.00 | 0.00 | 0.00 | 24 | 1008.2 |
| 20260504194059 | 73 | 327 | 3.5 | 7.8 | 0.00 | 0.00 | 0.00 | 22 | 1008.1 |
| 20260504193559 | 73 | 295 | 1.7 | 10.4 | 0.00 | 0.00 | 0.00 | 19 | 1007.9 |
| 20260504193113 | 73 | 261 | 2.6 | 10.4 | 0.00 | 0.00 | 0.00 | 19 | 1008.0 |
| 20260504192558 | 74 | 275 | 5.2 | 10.4 | 0.00 | 0.00 | 0.00 | 18 | 1007.9 |
| 20260504192104 | 73 | 266 | 3.5 | 9.6 | 0.00 | 0.00 | 0.00 | 19 | 1007.8 |
| 20260504191608 | 72 | 261 | 6.1 | 9.6 | 0.00 | 0.00 | 0.00 | 18 | 1007.8 |
| 20260504191059 | 72 | 311 | 3.5 | 10.4 | 0.00 | 0.00 | 0.00 | 19 | 1007.8 |
| 20260504190559 | 71 | 273 | 3.5 | 10.4 | 0.00 | 0.00 | 0.00 | 20 | 1008.0 |
| 20260504190116 | 72 | 268 | 5.2 | 11.3 | 0.00 | 0.00 | 0.00 | 20 | 1007.9 |
| 20260504185600 | 71 | 272 | 5.2 | 11.3 | 0.00 | 0.00 | 0.00 | 21 | 1008.0 |
| 20260504185059 | 72 | 277 | 8.7 | 14.8 | 0.00 | 0.00 | 0.00 | 20 | 1008.0 |
| 20260504184626 | 73 | 271 | 8.7 | 14.8 | 0.00 | 0.00 | 0.00 | 20 | 1008.0 |
| 20260504184059 | 74 | 293 | 7.8 | 14.8 | 0.00 | 0.00 | 0.00 | 19 | 1008.1 |
| 20260504183602 | 74 | 264 | 8.7 | 14.8 | 0.00 | 0.00 | 0.00 | 21 | 1008.2 |
| 20260504183100 | 73 | 287 | 7.8 | 14.8 | 0.00 | 0.00 | 0.00 | 23 | 1008.3 |
| 20260504182559 | 73 | 291 | 10.4 | 15.6 | 0.00 | 0.00 | 0.00 | 24 | 1008.3 |
| 20260504182101 | 73 | 330 | 11.3 | 15.6 | 0.00 | 0.00 | 0.00 | 24 | 1008.4 |
| 20260504181603 | 71 | 265 | 9.6 | 14.8 | 0.00 | 0.00 | 0.00 | 24 | 1008.6 |
| 20260504181102 | 71 | 283 | 9.6 | 14.8 | 0.00 | 0.00 | 0.00 | 24 | 1008.7 |
| 20260504180604 | 71 | 281 | 7.8 | 16.5 | 0.00 | 0.00 | 0.00 | 25 | 1008.7 |
| 20260504175559 | 70 | 245 | 8.7 | 15.6 | 0.00 | 0.00 | 0.00 | 25 | 1008.8 |
| 20260504175059 | 71 | 239 | 9.6 | 16.5 | 0.00 | 0.00 | 0.00 | 26 | 1008.9 |
| 20260504174602 | 71 | 279 | 10.4 | 17.4 | 0.00 | 0.00 | 0.00 | 26 | 1009.0 |
| 20260504174102 | 70 | 267 | 10.4 | 18.2 | 0.00 | 0.00 | 0.00 | 27 | 1009.1 |
| 20260504173559 | 69 | 251 | 11.3 | 18.2 | 0.00 | 0.00 | 0.00 | 27 | 1009.2 |
| 20260504173101 | 69 | 284 | 10.4 | 18.2 | 0.00 | 0.00 | 0.00 | 27 | 1009.3 |
| 20260504172601 | 69 | 292 | 8.7 | 16.5 | 0.00 | 0.00 | 0.00 | 28 | 1009.5 |
| 20260504172100 | 68 | 283 | 8.7 | 16.5 | 0.00 | 0.00 | 0.00 | 28 | 1009.6 |
| 20260504171613 | 67 | 287 | 10.4 | 16.5 | 0.00 | 0.00 | 0.00 | 28 | 1009.6 |
| 20260504171102 | 67 | 275 | 7.8 | 13.0 | 0.00 | 0.00 | 0.00 | 29 | 1009.7 |
| 20260504170603 | 66 | 271 | 7.8 | 13.0 | 0.00 | 0.00 | 0.00 | 29 | 1009.8 |
| 20260504160106 | 64 | 281 | 5.2 | 13.9 | 0.00 | 0.00 | 0.00 | 30 | 1009.7 |
| 20260504151058 | 63 | 286 | 6.1 | 9.6 | 0.00 | 0.00 | 0.00 | 29 | 1009.8 |
| 20260504150558 | 63 | 284 | 6.1 | 9.6 | 0.00 | 0.00 | 0.00 | 29 | 1009.8 |
| 20260504141058 | 60 | 272 | 6.1 | 7.8 | 0.00 | 0.00 | 0.00 | 28 | 1010.0 |
| 20260504140558 | 59 | 261 | 4.3 | 7.0 | 0.00 | 0.00 | 0.00 | 29 | 1010.0 |
| 20260504140112 | 58 | 260 | 3.5 | 7.0 | 0.00 | 0.00 | 0.00 | 31 | 1009.9 |
| 20260504130602 | 46 | 0 | 0.0 | 0.9 | 0.00 | 0.00 | 0.00 | 57 | 1009.9 |
| 20260504120120 | 44 | 133 | 0.0 | 0.9 | 0.00 | 0.00 | 0.00 | 56 | 1009.6 |
| 20260504110559 | 45 | 0 | 0.0 | 0.9 | 0.00 | 0.00 | 0.00 | 54 | 1009.6 |
| 20260504110107 | 44 | 0 | 0.0 | 1.7 | 0.00 | 0.00 | 0.00 | 55 | 1009.7 |
| 20260504100559 | 44 | 0 | 0.0 | 1.7 | 0.00 | 0.00 | 0.00 | 53 | 1010.1 |
| 20260504100105 | 44 | 135 | 0.0 | 1.7 | 0.00 | 0.00 | 0.00 | 53 | 1010.1 |
| 20260504090106 | 44 | 42 | 0.0 | 1.7 | 0.00 | 0.00 | 0.00 | 52 | 1010.3 |
| 20260504081558 | 46 | 0 | 0.0 | 0.9 | 0.00 | 0.00 | 0.00 | 48 | 1010.7 |
| 20260504081058 | 47 | 0 | 0.0 | 1.7 | 0.00 | 0.00 | 0.00 | 48 | 1010.8 |
| 20260504080605 | 47 | 0 | 0.0 | 2.6 | 0.00 | 0.00 | 0.00 | 47 | 1010.8 |